Location: Campo Claro
(10.4907°N, 66.8285°W)
Time: 08:10:43
(UTC+00:00)

Cosmos 372 Rocket - Pass Details

Date: 08 December 2021
Orbit: 737 x 768 km, 74.1° (Epoch: 24 January)

Event Time Altitude Azimuth Distance (km) Brightness Sun altitude
Rises 22:28:00 0° 346° (NNW) 3,225 7.2 -6.0°
Reaches altitude 10° 22:30:23 10° 345° (NNW) 2,300 6.4 -6.5°
Maximum altitude 22:35:37 84° 258° (WSW) 774 4.1 -7.7°
Drops below altitude 10° 22:40:50 10° 170° (S) 2,297 6.6 -8.9°
Sets 22:43:12 0° 169° (S) 3,220 7.4 -9.4°
